{"data":{"norad_id":55366,"epoch":"2026-09-20T01:37:03.455040Z","epoch_age_seconds":133936,"freshness":"FRESH","line1":"1 55366U 23013AM  26263.06740110 -.00000156  00000+0  38612-5 0  9999","line2":"2 55366  43.0017 270.7253 0000649 320.1698  39.9106 15.27575048201573","mean_motion":15.27575048,"eccentricity":6.49e-5,"inclination_deg":43.0017,"raan_deg":270.7253,"arg_perigee_deg":320.1698,"mean_anomaly_deg":39.9106,"bstar":3.8612e-6,"rev_number":20157,"period_min":94.267054301872,"perigee_km":482.61863220921,"apogee_km":483.50921608916,"semimajor_km":6861.2009241492,"source":"CELESTRAK","updated_at":"2026-09-21T09:00:33.208192Z"}}